Hourly Data Report for October 11, 2014

All times are specified in Local Standard Time (LST). Add 1 hour to adjust for Daylight Saving Time where and when it is observed.

POND INLET A
NUNAVUT

72°41'22.000" N
77°58'08.000" W
61.60 m
2403206
71095
YIO

Related Data

No related data is available for this station

Download Data

Hourly Data (October 2014)
Hourly Data Report for October 11, 2014
Temp Definition
°C
Dew Point Temp Definition
°C
Rel Hum Definition
%
Wind Dir Definition
10's deg

Wind Spd Definition
km/h
Visibility Definition
km
Stn Press Definition
kPa
Hmdx Definition


Wind Chill Definition


Weather Definition


TIME
00:00 Legend Double Dagger 0.9 -2.9 76 11 26 16.1 99.60     LegendNANA
01:00 Legend Double Dagger 0.9 -2.3 79 6 30 16.1 99.49     LegendNANA
02:00 Legend Double Dagger 1.6 -1.9 78 7 24 16.1 99.45     LegendNANA
03:00 Legend Double Dagger 2.6 -1.7 73 7 30 16.1 99.42     LegendNANA
04:00 Legend Double Dagger 2.8 -1.7 72 6 21 16.1 99.43     Rain
05:00 Legend Double Dagger 1.7 -1.2 81 5 41 16.1 99.37     Rain
06:00 Legend Double Dagger 2.1 -2.2 73 4 28 16.1 99.37     LegendNANA
07:00 Legend Double Dagger 2.0 -2.4 73 5 30 16.1 99.32     LegendNANA
08:00 Legend Double Dagger 1.8 -1.8 77 6 43 16.1 99.30     LegendNANA
09:00 Legend Double Dagger 5.0 -2.4 59 10 54 16.1 99.28     LegendNANA
10:00 Legend Double Dagger 4.6 -2.1 62 8 22 16.1 99.38     LegendNANA
11:00 Legend Double Dagger 4.4 -2.2 62 8 30 16.1 99.39     LegendNANA
12:00 Legend Double Dagger 1.2 -0.4 89 7 24 16.1 99.41     LegendNANA
13:00 Legend Double Dagger 5.8 -1.8 58 10 21 16.1 99.40     LegendNANA
14:00 Legend Double Dagger 4.1 -0.9 70 4 22 16.1 99.48     LegendNANA
15:00 Legend Double Dagger 1.5 0.0 90 7 39 16.1 99.48     LegendNANA
16:00 Legend Double Dagger 1.2 -0.1 91 7 32 16.1 99.47     LegendNANA
17:00 Legend Double Dagger 2.7 -0.5 79 6 30 16.1 99.43     LegendNANA
18:00 Legend Double Dagger 4.1 -0.5 72 8 39 16.1 99.39     LegendNANA
19:00 Legend Double Dagger 4.4 -1.2 67 8 50 16.1 99.34     LegendNANA
20:00 Legend Double Dagger 3.7 -0.7 73 5 11 16.1 99.52     LegendNANA
21:00 Legend Double Dagger 3.7 -1.5 69 3 21 16.1 99.56     LegendNANA
22:00 Legend Double Dagger 3.1 -1.5 72 9 37 16.1 99.54     LegendNANA
23:00 Legend Double Dagger 2.3 -1.0 79 7 22 16.1 99.61     LegendNANA

Notes on Data Quality.

Legend

  • E = Estimated
  • M = Missing
  • NA = Not Available
  • ‡ = Partner data that is not subject to review by the National Climate Archives
Date modified: